Wind_Speed
5 6 6 6 5 7 8 7 6 6 6 6 6 6 5 7 7 5 3 3 7 8 8 10 10 6 7 10 10 10 9 7 9 8 6 8 7 7 6 5 5 6 6 6 5 5 5 5 5 5 5 5 5 5 5 5 5 6 6 5 4 4 3 2 2 1 2 2 3 3 4 4 4 4 5 5 6 6 6 7 8 9 9 10 11
4 4 5 6 4 6 9 7 6 6 6 6 6 7 6 6 5 4 4 5 8 6 6 10 11 7 7 9 9 10 9 7 8 8 5 6 6 6 6 6 5 4 5 5 5 4 4 5 4 4 4 4 4 4 3 3 4 4 4 4 4 3 3 3 3 3 3 3 3 4 4 4 4 4 5 5 6 6 7 8 9 9 10 10 11
6 4 3 6 6 6 8 6 5 7 7 6 6 7 7 6 5 4 6 9 10 6 7 11 9 7 7 9 9 9 7 6 9 9 6 5 5 6 6 6 5 4 4 4 3 3 3 4 3 3 3 3 3 3 2 2 2 2 2 2 2 2 3 3 3 3 4 4 4 4 4 4 4 5 5 5 6 7 8 8 9 9 10 11 12
7 4 3 7 7 7 7 6 6 7 6 4 5 8 8 6 6 5 6 9 10 7 8 11 8 8 7 7 9 9 6 7 8 8 8 5 4 6 6 5 5 4 4 3 2 2 2 3 2 2 2 2 2 2 1 1 2 1 1 1 1 1 1 2 2 3 3 3 3 3 3 4 4 4 5 6 6 7 8 9 9 9 10 11 12
6 4 4 6 7 7 6 6 6 6 5 5 7 9 7 5 5 6 8 8 9 8 8 9 7 7 8 6 8 9 8 8 7 7 8 7 5 5 5 5 4 4 4 4 2 2 1 2 2 1 2 2 2 1 1 1 1 1 0 0 1 1 1 2 2 2 3 3 3 3 4 4 5 5 6 6 7 8 8 9 9 9 10 11 11
6 6 3 3 5 6 5 5 6 5 5 6 9 9 5 3 4 6 9 8 8 9 8 8 6 7 8 6 6 7 7 7 6 7 7 7 6 5 4 4 3 3 4 4 3 1 1 2 1 2 2 1 1 1 1 0 0 1 0 1 1 1 2 2 3 3 3 3 4 4 5 5 6 6 7 7 8 8 9 9 9 9 10 11 10
5 6 3 3 4 5 5 5 4 4 6 7 8 8 5 5 7 7 9 8 7 8 7 7 7 6 7 5 6 6 5 6 6 6 6 6 6 5 4 3 2 2 2 2 3 2 1 1 2 2 3 2 2 1 1 1 1 1 1 1 2 2 2 2 3 3 4 4 4 5 5 6 6 6 7 7 8 8 9 9 9 10 10 9 9
4 5 3 4 4 4 4 3 4 5 7 8 8 9 7 7 8 7 8 8 6 7 7 7 7 6 6 6 6 6 5 6 6 5 5 5 5 5 5 4 3 2 2 1 2 3 3 2 0 2 3 3 3 3 3 2 2 2 1 2 2 2 2 2 3 3 4 4 5 5 6 6 7 7 7 8 8 8 9 9 9 9 9 8 8
4 5 3 3 3 3 3 4 4 4 6 8 9 10 9 7 8 7 7 7 6 7 7 6 6 6 6 6 6 5 5 5 5 5 4 5 5 4 4 4 4 3 3 1 1 2 2 3 3 1 1 1 2 3 3 3 3 3 3 3 3 3 3 3 3 3 4 5 5 6 6 6 7 7 8 8 8 8 8 8 8 8 8 7 7
5 6 5 3 2 2 3 4 4 4 5 8 8 9 9 6 7 7 6 6 6 6 6 6 6 6 6 5 5 5 4 4 4 4 4 4 4 4 4 3 3 3 3 2 0 1 1 3 3 3 2 2 2 2 2 3 3 3 3 3 3 3 4 3 3 4 4 5 5 6 6 6 7 7 7 8 8 8 7 7 7 7 7 7 7
5 6 6 3 2 2 2 2 3 5 6 6 7 8 9 6 5 6 6 6 6 5 6 7 6 6 5 5 4 4 4 3 3 4 3 3 3 4 3 3 3 2 3 4 2 1 1 2 2 2 3 4 4 3 3 3 3 4 4 4 4 4 4 4 4 5 5 6 6 6 6 6 7 7 7 7 7 6 6 6 6 6 6 6 7
6 6 6 5 4 2 2 2 1 3 5 5 7 8 8 6 5 7 6 6 6 5 5 5 5 5 5 4 4 3 3 3 3 3 3 3 3 3 3 2 2 2 2 3 3 2 1 2 2 1 2 3 5 4 4 4 3 4 4 4 4 4 4 5 5 5 5 6 6 6 6 6 7 7 6 6 5 5 5 5 6 6 6 6 6
6 6 5 5 5 3 3 4 1 1 3 4 6 6 7 5 6 8 7 5 5 4 4 5 6 5 4 4 4 4 3 3 3 2 2 2 3 3 3 3 2 2 1 0 2 2 1 2 3 2 3 4 4 4 4 4 3 3 4 4 4 3 3 4 4 4 5 5 5 5 5 6 6 6 5 5 4 4 5 5 5 5 5 6 6
7 6 5 4 3 3 2 3 3 1 2 3 4 7 6 5 7 8 7 6 5 4 5 5 5 4 4 4 4 4 3 3 3 2 3 2 3 4 3 3 2 2 2 1 3 2 1 1 2 2 4 5 4 4 4 3 3 3 3 3 3 3 3 3 4 4 5 5 5 4 4 5 5 4 4 4 4 4 4 4 5 5 5 5 5
7 6 6 5 4 3 3 2 2 2 1 2 3 6 6 6 9 9 6 7 5 4 5 5 4 4 5 4 4 4 4 3 3 3 3 3 3 3 3 3 2 2 3 1 2 2 1 1 1 2 3 3 2 4 5 4 3 4 4 3 3 4 3 4 4 5 5 5 4 4 4 4 4 3 3 3 3 4 4 4 5 5 5 5 5
8 7 6 5 5 4 4 3 3 2 0 1 1 4 5 5 7 9 7 6 6 4 4 5 5 5 4 3 4 4 4 5 5 3 3 3 4 3 2 2 2 2 4 2 1 1 0 2 3 4 3 2 2 2 4 5 4 3 4 4 4 5 5 5 5 5 5 4 3 3 3 3 3 3 3 3 3 4 4 5 5 5 5 6 6
8 7 7 6 5 5 5 4 4 3 1 0 0 1 3 4 5 7 6 5 6 5 4 4 4 5 5 3 3 4 5 5 5 3 1 2 4 2 2 2 2 2 2 2 1 1 0 2 5 7 6 4 3 1 2 5 5 4 5 5 6 7 6 5 5 4 4 4 4 4 4 3 3 3 3 4 4 5 5 6 6 6 6 7 7
9 8 8 7 6 6 5 5 4 3 3 2 1 1 2 3 3 4 4 5 7 6 5 4 3 4 6 4 3 4 4 3 4 4 2 1 2 1 1 2 2 1 1 1 2 2 0 2 4 7 7 5 3 2 2 4 5 6 6 5 6 7 6 6 5 4 5 4 4 4 4 4 4 4 4 5 5 6 6 7 7 8 8 8 8
10 10 9 8 7 6 6 6 4 4 3 3 2 1 1 0 1 3 3 5 7 7 5 3 3 4 4 3 2 2 2 3 3 3 3 3 2 2 2 1 2 2 1 1 1 1 1 2 2 3 6 7 5 4 3 3 4 4 5 5 5 5 6 6 5 5 5 5 5 5 5 5 5 6 6 6 7 7 8 8 8 9 9 9 9
11 11 11 9 8 7 7 6 5 5 4 3 2 1 3 3 1 3 4 5 7 7 5 4 3 3 3 3 2 2 3 3 3 3 2 1 2 3 3 1 1 1 0 1 0 0 1 2 2 2 4 7 7 4 3 5 5 4 5 5 5 5 5 6 6 6 6 6 6 6 7 7 7 7 8 8 9 9 10 10 10 10 10 10 10
12 12 12 11 10 9 8 7 7 6 5 3 2 3 5 4 1 2 3 4 5 5 5 5 5 3 3 4 3 2 2 2 2 2 1 2 2 4 3 2 2 2 1 1 1 1 1 2 3 2 2 5 7 5 4 6 7 6 6 6 6 7 6 7 7 7 7 7 8 8 8 9 9 9 10 10 10 11 11 12 12 12 12 12 12
14 14 14 12 11 10 9 8 8 7 6 5 5 6 6 5 2 1 1 3 4 3 3 4 5 4 3 3 4 3 2 2 2 2 1 2 3 2 2 2 2 2 1 1 0 1 1 2 3 3 2 4 6 6 6 7 7 7 7 7 7 8 7 7 7 7 8 8 9 9 10 10 11 11 11 12 12 12 13 13 14 14 14 14 14
13 14 16 15 13 12 10 9 8 8 8 7 6 5 5 5 4 3 2 2 3 3 3 3 3 4 3 3 3 3 2 2 2 1 1 0 1 1 2 3 3 2 2 2 2 2 2 2 3 3 4 4 5 6 8 9 8 7 7 7 7 7 7 7 7 8 8 8 9 9 10 11 11 12 12 13 13 13 14 14 15 15 16 16 16
15 14 15 16 15 14 12 11 10 9 9 8 7 6 5 5 6 5 4 3 3 3 3 3 2 2 3 2 2 3 3 2 2 1 0 1 1 2 2 3 2 2 2 3 3 2 2 3 3 3 4 5 5 7 8 8 7 5 5 6 6 6 6 7 7 8 8 9 9 10 11 11 12 13 13 14 14 14 15 15 16 16 17 17 17
18 17 15 15 16 16 14 13 12 11 10 9 9 9 8 8 8 6 5 4 4 4 3 3 3 3 3 3 3 3 3 2 2 2 1 1 1 2 3 3 2 2 2 2 3 3 3 2 2 3 4 5 6 6 5 5 6 4 5 6 7 7 7 8 9 9 10 10 11 11 12 12 13 14 14 15 15 15 16 16 16 17 18 18 19
20 19 17 16 16 17 16 14 13 11 11 11 10 10 9 9 8 7 6 5 5 5 4 4 4 4 3 4 4 3 3 2 2 2 2 2 2 3 3 3 3 3 2 2 3 3 2 2 2 4 4 4 5 5 4 4 7 7 8 10 11 10 10 11 11 12 13 13 14 14 15 15 15 16 16 17 17 17 18 18 18 18 19 19 19
20 20 19 18 17 17 16 15 14 13 12 12 11 11 10 9 8 7 7 7 6 6 6 5 5 5 4 5 4 3 3 3 2 2 2 2 2 2 3 3 3 3 3 2 3 3 2 2 3 5 7 6 4 5 8 9 10 12 12 12 14 15 14 14 14 15 16 16 17 17 18 18 19 19 19 19 19 20 20 20 20 20 20 20 21
18 19 20 19 19 19 17 15 15 14 14 13 12 12 11 10 9 8 8 8 7 6 7 6 6 6 6 5 4 4 4 4 4 3 4 5 5 5 4 3 3 3 3 3 3 2 2 4 6 7 10 10 8 11 14 14 13 14 15 14 16 18 18 18 17 17 19 19 20 21 21 21 22 22 22 22 23 23 23 23 23 23 23 22 23
18 19 20 20 20 20 19 17 16 16 15 14 14 13 12 11 11 10 9 8 8 8 7 8 7 7 7 7 6 5 6 6 5 5 7 7 6 5 4 4 5 5 4 4 4 3 3 5 5 8 12 13 15 17 17 16 14 14 16 17 18 19 20 21 20 20 20 22 23 24 24 25 25 25 25 25 26 26 26 26 26 26 26 26 25
20 20 19 20 20 20 20 19 17 17 17 15 15 14 13 12 11 11 10 10 10 9 9 9 8 8 8 8 7 6 6 6 5 5 8 8 5 5 6 6 6 6 5 6 6 5 5 6 6 8 12 15 18 18 17 17 17 16 17 17 19 20 21 22 23 23 23 23 24 25 26 27 27 27 28 28 28 28 28 29 29 29 29 29 29
23 22 20 20 21 21 21 21 19 18 18 17 16 15 14 14 13 12 12 12 11 11 11 10 10 10 10 10 9 8 8 7 6 6 8 10 8 6 7 8 7 7 7 8 9 7 6 8 9 10 12 15 17 17 18 20 20 20 20 20 21 21 21 22 23 24 25 25 25 25 26 27 27 27 28 28 29 30 30 31 31 31 31 31 32
24 25 24 21 21 22 22 21 20 19 19 18 17 17 16 15 15 14 13 13 12 12 12 12 11 11 11 11 10 10 10 9 9 8 8 11 10 8 8 10 9 9 9 10 12 12 11 11 13 13 13 14 15 17 19 21 22 23 23 24 24 24 24 25 25 26 26 25 25 25 26 26 27 27 28 28 29 30 31 32 33 33 33 33 34
23 25 26 24 22 22 22 21 20 19 19 19 18 18 17 16 16 15 14 14 13 12 12 12 12 12 11 11 11 11 11 11 10 9 9 10 11 10 9 10 10 10 11 12 13 16 15 14 15 16 16 16 17 19 21 23 24 24 25 27 28 28 28 28 28 28 27 26 25 25 25 26 26 27 28 29 31 31 32 33 34 34 35 35 35
25 24 25 26 25 24 22 21 20 20 20 21 20 19 18 17 17 16 16 16 16 14 14 13 13 13 13 12 11 12 12 12 12 11 10 10 11 10 10 11 11 11 12 14 15 17 18 18 18 19 19 19 20 22 24 26 28 27 28 29 29 28 28 28 28 28 28 29 28 26 25 25 26 27 28 29 31 32 34 34 35 35 35 36 36
26 26 25 25 26 26 24 22 23 22 22 23 22 20 20 19 18 18 17 18 18 17 17 16 14 14 13 13 12 12 12 12 12 12 11 12 12 12 12 12 12 11 12 15 17 20 21 21 21 21 20 20 22 24 26 28 28 28 28 29 29 28 28 27 27 27 27 28 28 27 26 25 26 27 27 28 29 30 32 34 35 36 37 37 37
26 28 27 26 26 27 27 26 26 25 24 24 23 21 22 22 20 19 19 19 19 18 18 17 15 14 14 13 13 13 13 13 13 13 12 13 13 13 14 14 13 13 14 16 19 21 23 24 24 24 24 25 26 27 27 27 28 28 27 26 24 23 23 22 22 24 25 25 26 26 26 26 28 29 28 27 27 28 29 31 32 33 35 36 37
25 27 28 28 27 29 29 28 28 28 27 26 24 22 22 23 23 22 21 21 21 20 19 17 16 16 15 15 15 14 14 14 15 14 13 13 14 14 14 14 14 15 16 18 19 21 22 24 25 26 27 29 30 29 28 28 28 24 20 18 17 17 18 18 18 21 22 22 22 24 26 27 28 28 27 25 25 26 26 27 28 30 32 33 35
27 26 28 30 30 30 30 30 30 29 28 27 26 24 22 22 23 22 22 22 22 22 21 20 19 18 18 18 17 16 16 16 15 15 14 14 15 15 15 15 15 16 17 19 20 21 21 23 26 28 29 30 31 31 29 25 21 18 17 17 16 16 17 18 19 21 19 18 20 22 24 25 25 25 26 28 29 29 29 27 27 27 28 30 32
29 27 27 29 31 32 31 30 30 30 29 28 27 26 24 23 23 22 22 22 22 22 21 21 19 18 18 19 19 19 19 18 17 16 15 16 16 16 17 17 16 16 16 17 18 19 19 20 25 28 29 29 30 30 27 22 18 18 18 19 18 18 18 19 21 22 20 20 22 21 20 21 24 25 26 29 33 36 37 36 34 32 29 27 26
30 28 27 27 30 32 32 31 31 30 30 29 29 28 26 25 24 24 23 22 22 22 22 21 20 19 18 18 19 19 19 19 18 17 17 17 17 17 18 17 17 17 17 17 18 19 19 22 26 28 28 29 30 29 25 20 17 18 19 20 22 21 19 20 21 21 23 24 23 19 17 18 21 24 29 34 37 39 41 42 42 40 36 31 27
30 29 27 26 27 30 32 32 31 31 31 31 30 29 28 27 26 25 25 24 23 23 22 22 21 20 20 19 19 19 20 20 20 19 18 17 18 18 18 19 19 19 20 20 21 22 23 25 28 28 28 29 27 25 23 17 15 18 20 21 23 23 23 23 20 18 22 25 23 22 21 19 22 28 35 39 40 40 41 44 43 42 41 39 37
30 29 29 27 26 27 30 32 32 32 32 32 31 30 28 28 27 26 27 27 25 24 24 23 22 21 21 20 20 20 21 22 23 21 19 18 19 19 19 20 21 22 22 22 23 24 26 28 28 26 26 26 24 22 21 18 17 18 19 20 23 26 27 27 22 18 20 23 26 32 33 29 30 37 39 39 39 39 39 41 40 40 41 41 40
31 31 30 29 27 26 27 29 31 32 33 33 32 30 28 27 26 26 27 28 27 26 26 26 25 23 22 21 21 21 22 24 25 23 22 21 21 21 22 22 23 24 25 25 26 27 27 28 27 25 25 26 24 22 21 20 19 19 20 21 24 26 26 26 25 23 23 24 28 37 40 38 37 39 39 39 40 39 38 37 36 37 38 38 38
33 33 32 31 30 28 25 26 28 30 32 33 33 30 28 27 26 26 27 27 28 28 27 27 27 27 25 23 22 21 22 24 25 25 24 23 22 22 23 24 25 26 27 28 28 28 28 29 29 29 28 27 26 25 23 22 23 23 24 24 24 24 24 24 28 30 30 30 32 37 42 41 37 36 38 38 35 34 35 36 36 37 37 38 39
35 34 33 32 32 30 28 25 26 27 27 30 33 32 29 27 26 26 26 27 27 27 28 28 28 28 28 26 25 24 23 24 26 27 27 26 24 24 24 25 26 27 28 29 29 29 30 30 31 33 32 30 29 27 24 24 26 27 27 27 24 23 23 24 28 33 34 34 34 36 40 41 37 33 33 32 29 30 32 33 34 36 36 36 36
36 36 34 32 32 33 31 28 26 26 25 27 31 31 29 28 27 26 27 26 25 25 25 27 28 29 29 28 28 28 27 27 28 29 29 29 28 27 26 27 27 27 28 28 29 29 30 31 32 33 32 30 29 28 25 25 27 28 29 28 25 26 27 26 29 34 36 34 32 32 38 39 34 30 29 29 30 31 30 31 34 35 34 32 31
37 38 36 34 34 35 35 31 28 27 26 27 29 30 30 28 28 28 28 29 28 27 27 28 29 30 30 30 30 30 29 29 30 29 30 30 29 28 27 28 28 28 28 28 28 28 28 30 31 31 30 29 28 27 26 25 26 28 30 29 28 30 30 30 32 33 31 29 26 26 32 33 28 29 33 33 32 33 33 33 34 33 30 28 29
35 37 37 36 35 36 36 34 32 29 28 28 30 32 31 29 29 29 31 32 33 32 32 32 32 32 32 32 32 31 31 31 30 30 30 30 29 28 26 26 26 25 25 26 26 26 25 24 25 26 27 28 28 28 27 26 26 28 29 30 29 29 30 32 33 28 21 21 21 19 23 28 29 32 37 37 34 35 36 33 29 27 26 26 28
33 34 36 36 36 36 36 35 34 32 31 31 33 34 34 32 31 30 32 33 34 35 35 35 35 35 35 35 34 34 34 33 32 31 30 30 30 29 28 27 27 25 25 24 23 24 24 23 22 22 23 26 28 29 28 26 25 25 27 28 27 27 29 32 32 27 21 19 17 15 21 30 33 33 36 39 38 35 33 29 25 24 25 25 27
34 31 31 33 34 35 35 36 35 34 32 32 34 35 35 34 32 31 32 33 34 35 36 36 37 37 37 37 36 36 36 35 33 32 31 31 31 30 29 29 28 28 28 25 22 21 23 22 21 21 23 27 29 28 25 22 22 22 24 25 24 24 26 26 27 31 29 20 13 19 29 36 36 35 37 40 41 36 29 25 25 27 27 28 28
37 31 28 29 30 31 33 34 34 34 33 32 34 35 35 34 33 31 31 32 33 34 35 36 37 38 38 39 38 38 37 36 35 34 33 32 32 31 30 29 29 29 28 24 20 19 20 20 20 21 22 25 27 25 23 20 19 20 20 21 22 22 21 20 22 28 29 22 19 27 34 35 36 37 36 34 37 37 33 29 30 32 32 31 29
Wind_Direction
163 169 156 141 132 115 105 91 88 96 93 89 80 79 86 94 104 111 124 113 101 114 118 112 111 102 94 96 98 96 95 100 108 120 112 94 89 96 111 115 113 118 116 115 117 113 106 104 99 92 89 87 84 80 82 81 80 81 82 87 92 96 98 94 80 57 40 20 14 12 14 17 10 9 6 3 4 7 5 359 357 353 353 353 351
172 176 149 129 119 97 94 92 91 94 87 84 82 74 73 82 92 127 151 110 90 99 109 109 113 115 100 93 87 87 101 106 107 117 108 97 100 96 102 111 111 111 113 120 126 123 118 119 116 107 104 101 94 87 85 78 77 81 83 90 87 82 81 73 63 58 50 34 26 18 15 12 4 3 1 357 356 354 351 350 350 348 349 352 351
172 166 147 120 107 85 86 99 85 67 74 87 89 72 69 69 59 91 117 104 103 113 114 110 111 112 102 98 90 81 90 89 94 114 116 104 116 112 102 102 108 101 99 110 115 115 120 119 118 117 118 115 107 103 104 92 77 76 78 85 78 67 59 55 47 46 47 39 30 23 16 10 4 2 360 354 345 342 341 343 345 345 347 350 349
177 151 113 99 88 76 80 94 81 67 72 86 88 75 64 52 42 67 84 90 107 116 107 110 115 116 104 96 100 97 89 79 89 114 122 122 121 121 118 106 105 103 97 102 110 111 118 120 121 128 123 120 120 118 133 116 82 78 87 82 69 50 24 23 23 22 28 30 24 15 6 356 353 350 346 339 332 332 336 339 342 343 345 346 346
165 116 81 86 76 71 79 79 75 76 84 82 75 68 56 40 28 47 69 79 97 100 95 106 117 112 105 92 93 100 100 96 103 112 116 124 121 123 132 121 108 102 101 101 116 141 160 149 144 167 154 138 136 130 159 148 102 99 158 317 26 9 341 338 352 358 355 353 348 341 338 332 330 329 326 325 325 328 333 338 340 341 343 343 345
153 113 82 82 71 69 74 62 64 67 67 72 72 70 61 65 69 67 78 77 83 94 98 105 102 90 96 100 94 97 101 103 110 111 114 125 128 135 133 121 112 101 100 91 85 96 236 218 211 222 212 190 176 171 205 217 134 149 233 302 338 319 318 331 336 341 339 337 334 328 327 326 324 323 321 322 325 330 334 337 338 339 340 341 345
159 131 107 83 65 57 58 45 53 61 57 69 81 81 60 59 76 76 84 90 90 94 98 101 96 88 94 104 105 105 105 105 111 114 117 121 127 138 129 116 113 99 113 108 82 55 6 254 241 244 244 252 257 254 244 246 260 250 269 301 317 310 314 328 322 321 325 325 325 321 320 320 319 319 320 321 325 331 334 335 337 338 341 343 346
173 153 117 77 65 50 63 61 43 45 59 67 72 76 62 49 66 81 89 95 94 90 94 99 97 96 99 101 106 112 113 111 115 115 120 126 127 133 133 140 160 136 109 107 90 60 33 30 296 250 244 251 259 268 274 278 278 284 304 309 314 315 318 326 315 314 320 321 319 316 315 315 315 317 319 322 326 330 333 335 336 339 344 348 349
171 164 138 83 71 38 43 72 52 38 66 69 62 71 73 50 57 88 95 86 90 95 95 98 99 100 100 99 106 112 114 115 120 122 124 129 131 134 140 152 150 120 97 56 35 53 43 42 42 30 325 269 265 272 289 302 302 302 307 311 312 310 313 321 319 317 324 327 325 320 319 319 321 322 322 326 330 333 336 335 336 341 345 349 353
177 174 162 137 115 74 39 59 60 59 68 64 56 61 69 51 46 78 100 97 95 93 94 98 102 103 102 100 103 109 113 119 123 122 118 125 136 137 140 150 133 118 138 162 322 22 65 39 28 35 35 22 359 323 318 323 324 324 318 312 308 304 306 308 311 317 322 325 327 326 325 326 326 326 327 329 332 335 335 334 336 343 347 352 358
184 186 170 155 138 121 85 68 65 83 78 63 60 57 63 63 55 72 89 99 100 96 97 98 97 103 106 99 97 108 115 116 118 120 123 131 136 136 141 144 141 150 157 152 173 277 28 30 13 10 7 11 12 3 352 343 338 340 338 334 326 318 311 305 303 307 313 315 318 322 324 327 328 328 331 331 331 332 330 331 339 346 351 355 358
188 195 184 170 163 145 116 119 54 70 81 70 64 61 66 71 80 89 84 86 96 98 97 99 105 106 104 97 86 95 110 110 114 121 124 133 133 134 138 131 137 161 162 161 181 226 330 10 12 349 329 350 2 5 6 358 354 348 340 335 328 323 319 312 309 307 308 310 312 317 322 323 325 328 332 330 328 329 329 335 343 348 351 352 353
198 203 203 194 174 163 148 149 171 14 69 72 61 64 71 77 91 92 87 94 96 97 100 101 111 112 106 107 92 84 90 98 105 110 111 129 129 119 126 130 115 120 135 142 132 141 315 359 14 340 316 329 338 348 359 3 9 1 342 329 316 312 317 317 318 317 311 311 315 319 320 318 321 326 327 326 327 331 334 341 344 346 346 347 347
208 209 212 220 196 189 201 157 165 202 97 83 59 61 64 71 87 83 78 90 93 105 108 94 99 113 113 117 108 93 79 85 101 103 106 116 120 112 110 118 100 97 124 18 45 87 126 46 22 318 318 332 329 320 330 350 358 352 344 336 323 314 317 316 317 316 312 312 319 322 318 316 318 321 320 322 327 330 334 338 339 339 340 340 340
214 218 214 219 217 208 210 206 206 203 100 76 42 51 59 64 83 90 79 76 84 101 110 102 100 109 113 118 125 112 90 107 118 104 111 112 123 129 104 115 136 107 112 83 63 92 133 183 269 305 324 335 316 296 302 311 329 341 340 337 328 323 317 313 310 306 306 309 313 314 309 309 309 313 317 319 324 326 328 331 330 332 333 334 338
219 219 216 215 219 215 202 218 237 238 134 102 37 47 64 60 76 96 93 84 93 94 104 114 110 113 118 116 132 130 114 125 127 118 131 116 122 140 104 137 238 30 92 121 141 149 195 243 288 328 347 328 285 260 276 292 312 322 318 322 322 316 312 310 308 304 303 302 300 301 298 298 298 300 306 311 316 320 321 324 326 329 331 334 337
226 217 215 217 214 219 213 214 234 244 236 203 316 32 66 53 62 89 93 96 108 108 106 107 112 127 125 125 133 100 77 94 95 87 121 122 127 140 79 155 251 3 96 185 252 15 110 251 294 329 352 353 334 322 251 271 296 303 301 315 318 314 313 312 312 306 303 298 291 290 287 286 287 288 299 305 311 316 319 322 324 327 329 330 331
232 221 215 219 215 218 225 220 231 240 231 229 252 307 59 54 51 70 79 98 112 116 115 109 115 121 109 114 119 68 56 77 68 65 67 77 134 170 88 151 234 347 85 230 303 337 252 249 301 330 340 340 321 319 280 261 291 310 312 318 314 312 315 315 315 309 304 301 293 288 283 283 284 288 295 301 307 311 315 318 320 322 322 321 322
231 227 218 219 220 218 227 226 224 239 246 242 240 17 34 124 93 89 85 99 110 111 121 125 115 115 109 111 109 77 98 112 80 83 84 58 84 155 144 153 230 211 139 29 311 274 210 260 296 298 308 320 318 312 315 293 302 313 316 319 315 315 316 313 315 312 307 303 297 292 287 286 287 290 294 297 301 304 306 309 310 311 310 309 308
227 227 223 219 221 220 226 230 222 225 238 244 229 192 225 240 165 103 94 101 111 116 136 140 111 127 145 137 126 104 109 104 94 103 90 48 90 128 133 93 108 161 110 55 94 276 232 274 301 250 274 301 311 309 286 293 315 322 313 317 320 322 321 318 317 314 309 305 300 297 292 291 290 289 289 290 292 294 296 298 300 301 301 300 299
233 227 225 220 221 221 223 228 226 224 227 223 222 221 229 241 230 109 101 102 110 119 135 136 128 147 159 146 145 132 115 119 120 99 67 329 40 90 98 77 90 94 48 65 78 324 263 255 292 307 270 268 287 295 262 273 306 324 322 322 324 324 325 322 318 312 307 302 297 293 289 288 286 284 285 284 285 287 288 290 292 293 294 294 293
239 230 227 223 221 222 221 225 227 225 218 201 206 224 233 239 231 179 130 110 114 120 124 133 136 146 167 163 146 137 133 135 147 140 115 341 3 55 63 47 90 96 42 19 32 315 272 257 276 292 270 244 265 283 284 288 302 317 323 323 320 319 318 314 310 305 299 295 291 288 285 283 282 281 280 280 281 282 283 285 286 287 288 288 288
230 231 230 226 222 223 221 221 223 222 218 206 201 215 232 245 241 212 181 153 138 133 137 151 138 134 163 178 143 142 158 150 150 150 117 155 298 317 17 38 53 60 28 335 318 303 277 262 262 258 251 248 253 264 281 296 303 308 313 314 311 310 309 306 301 297 292 289 286 283 282 281 280 281 281 281 280 280 280 280 281 282 283 284 284
217 221 227 226 224 224 222 221 219 218 219 211 199 198 202 223 242 230 197 185 177 162 156 164 164 135 150 176 170 167 182 190 186 179 124 198 273 304 350 21 12 25 20 343 331 312 283 270 257 252 256 257 252 252 264 282 298 307 305 306 308 303 303 302 297 295 291 287 285 283 282 281 280 281 281 281 280 279 279 278 278 279 279 280 281
222 218 217 219 222 224 222 221 220 216 216 212 205 203 195 199 225 232 211 197 189 186 177 170 191 190 168 185 202 197 192 198 213 202 199 228 252 289 323 354 341 349 358 335 334 313 277 248 231 237 244 247 253 260 265 278 292 313 318 313 313 308 305 305 301 298 294 290 288 287 286 285 284 283 282 281 281 280 279 278 278 277 277 277 278
231 226 219 212 216 224 222 219 221 217 214 214 211 213 207 203 218 224 219 220 205 195 194 188 204 205 187 193 191 202 214 196 202 212 220 250 273 295 311 321 310 321 330 304 320 321 270 220 244 261 268 261 255 270 295 296 287 298 314 312 310 309 303 300 298 295 293 292 291 290 289 288 287 285 284 283 282 281 280 280 279 278 277 276 276
230 229 226 216 212 220 220 216 218 216 213 215 212 214 215 214 223 222 218 226 219 206 206 203 214 216 210 213 195 192 221 212 212 238 255 262 270 270 278 297 308 315 322 304 298 291 246 235 233 251 288 298 280 290 312 312 296 296 304 301 299 300 297 294 293 292 292 290 289 289 288 287 286 284 284 283 282 282 281 280 280 279 278 277 276
221 224 228 225 220 222 221 215 215 214 213 216 214 214 216 216 224 227 221 228 228 218 216 215 218 222 222 229 219 196 210 220 219 233 238 234 237 244 256 276 286 291 307 318 308 275 260 264 237 249 291 303 293 297 306 308 303 300 301 297 293 294 294 293 292 290 291 290 290 290 288 287 286 285 284 283 282 282 281 281 280 279 278 277 277
212 218 225 229 228 227 226 219 214 214 213 215 215 214 215 215 222 228 224 229 233 225 222 223 222 227 231 239 240 223 220 229 229 231 240 243 247 263 272 264 266 276 278 281 290 281 275 285 266 269 293 298 292 295 300 302 306 306 303 302 298 296 297 298 296 293 292 291 291 291 291 290 289 288 286 285 284 283 282 281 280 279 278 277 276
209 213 219 227 228 226 228 226 219 217 215 215 216 213 213 215 218 226 226 228 235 233 228 227 225 226 227 231 240 243 242 248 249 249 258 269 278 282 281 278 279 284 281 276 280 281 275 280 276 280 294 295 292 295 296 298 304 306 304 301 299 300 301 301 300 300 299 298 296 295 295 294 293 293 291 289 288 286 284 282 281 280 279 278 277
212 213 213 219 226 224 224 225 224 224 221 217 217 215 213 215 218 224 229 229 232 235 238 235 230 229 228 225 228 235 239 242 240 240 254 269 280 278 275 285 291 290 292 286 283 285 282 276 273 277 286 290 290 292 294 297 301 304 304 303 301 301 302 300 301 302 302 303 302 301 299 298 297 295 294 292 290 287 285 283 281 280 279 278 277
214 218 215 215 222 224 222 221 220 223 225 222 219 218 215 216 221 224 229 233 235 238 243 238 229 230 234 232 231 234 235 237 239 236 241 256 267 268 264 275 286 291 295 293 290 296 299 293 288 287 287 285 282 283 286 292 298 301 304 307 307 307 306 305 304 303 303 303 303 302 300 298 296 294 292 290 288 286 283 281 280 278 277 277 276
212 218 220 217 220 224 222 218 215 215 221 224 221 221 220 219 223 225 224 232 238 240 244 239 230 230 235 237 238 239 239 241 244 243 241 249 259 263 261 263 269 277 284 291 296 301 305 304 301 300 299 294 291 292 294 298 302 303 304 307 308 308 308 309 308 307 308 308 307 306 304 302 300 297 295 293 291 289 286 283 281 278 276 275 274
214 216 220 220 219 221 220 215 213 211 214 222 222 222 225 224 226 229 226 230 238 240 243 244 236 232 235 240 242 243 243 245 246 244 243 246 251 257 260 261 262 265 272 284 293 299 302 303 300 299 300 297 296 299 302 304 306 305 304 305 306 305 307 309 309 309 310 311 312 313 312 310 306 303 300 298 295 293 292 289 287 284 281 279 276
217 218 219 221 221 222 219 215 216 214 214 222 222 220 226 228 227 230 231 234 238 240 242 248 248 242 240 242 243 244 245 246 251 249 243 242 243 246 250 253 257 260 265 275 285 292 296 298 296 295 294 292 291 296 300 302 302 301 301 303 304 303 305 305 305 303 303 305 307 309 310 309 306 303 301 298 296 294 294 293 291 290 288 286 283
216 220 219 220 221 223 221 218 221 222 220 226 227 222 227 232 230 229 231 235 239 241 244 248 251 251 246 244 243 242 240 242 250 253 248 247 249 249 252 258 265 270 271 273 279 287 292 294 296 298 297 298 300 302 303 302 301 302 301 301 299 298 299 298 298 299 301 302 305 308 310 308 305 304 303 301 298 295 294 294 293 292 290 289 288
209 217 220 219 220 224 223 221 224 227 226 229 230 226 226 232 234 232 231 235 240 243 246 247 247 249 248 247 245 241 237 237 245 252 249 250 255 258 263 270 277 282 285 287 287 287 288 290 295 299 302 305 306 307 306 306 306 306 303 298 296 297 299 300 300 303 306 307 308 307 306 306 306 308 310 309 305 300 297 297 297 295 293 290 288
205 210 218 220 221 224 226 224 226 230 230 231 232 229 226 229 236 237 234 236 241 244 246 248 250 250 249 248 246 243 240 237 240 245 247 250 259 266 272 277 280 280 284 289 291 291 290 292 297 302 304 305 306 307 308 308 306 304 304 305 305 306 306 304 305 309 306 300 300 299 298 303 308 312 315 316 315 313 309 305 303 301 299 295 290
206 205 213 219 222 224 226 227 228 231 232 233 234 233 228 225 232 239 237 235 240 244 245 248 250 249 249 249 247 245 245 244 242 241 245 253 262 271 277 281 279 277 277 279 283 285 285 288 294 298 300 301 302 302 302 302 303 306 310 313 311 309 306 302 307 313 306 298 301 302 302 308 311 312 315 318 319 321 319 315 313 310 308 305 297
209 206 208 215 221 224 226 228 229 231 233 234 234 234 232 227 228 236 239 236 237 241 244 245 245 242 242 245 247 247 248 250 249 246 246 253 262 269 274 277 275 274 275 275 274 275 277 282 288 292 294 296 297 298 298 301 307 307 306 307 306 307 308 306 308 312 309 306 308 306 304 307 307 310 317 320 322 323 322 320 319 317 316 313 308
210 207 206 209 216 222 226 228 228 230 233 234 234 234 234 232 229 233 240 241 239 238 241 243 241 240 240 240 242 245 249 253 256 255 253 256 263 268 271 273 272 273 276 277 277 279 281 285 287 290 293 294 295 297 297 298 302 301 300 301 304 307 309 308 305 309 312 311 310 308 307 308 310 314 319 322 324 326 325 324 323 321 319 317 314
210 208 207 206 210 217 224 227 227 229 231 233 235 235 235 235 234 234 238 243 242 238 239 241 239 239 242 244 243 243 246 253 258 261 262 264 268 271 271 271 270 272 274 274 276 279 282 284 286 288 288 289 291 293 294 298 299 296 294 296 302 307 309 309 309 312 314 311 309 312 315 316 318 320 322 324 326 328 327 325 322 320 320 320 318
212 211 208 206 207 212 218 223 227 229 230 232 235 236 235 235 237 237 237 241 244 242 242 243 242 240 242 246 249 247 247 253 260 264 267 269 270 273 274 273 272 273 273 272 273 275 276 279 282 282 281 284 287 289 293 298 293 289 293 300 305 307 308 308 308 310 313 312 309 312 317 321 322 322 325 328 329 329 330 330 328 324 320 318 318
214 215 212 210 208 209 212 217 222 227 229 232 236 238 237 235 236 238 237 238 242 244 245 245 246 247 247 246 247 249 252 258 263 267 268 268 270 271 273 274 273 274 274 274 274 274 272 273 275 276 277 279 283 288 293 294 290 292 301 306 306 305 304 302 303 308 316 317 313 313 318 324 327 325 327 329 326 324 326 329 330 328 322 316 314
216 218 217 215 212 210 210 212 217 221 224 231 236 238 237 236 234 233 234 235 237 241 245 247 248 250 251 251 249 248 251 257 264 269 271 272 274 273 272 272 272 273 275 276 277 276 273 271 271 275 277 278 281 287 290 289 290 297 303 305 303 301 299 300 304 311 317 320 320 319 321 328 332 327 324 323 318 313 312 313 318 323 323 318 311
218 221 219 218 217 217 214 212 213 216 219 228 237 239 236 234 232 229 230 230 230 233 239 245 248 250 251 253 254 254 254 257 262 267 271 274 276 277 277 276 276 276 275 275 276 276 274 272 272 275 279 280 281 283 284 284 290 298 303 303 301 301 303 305 309 313 318 324 327 323 321 327 332 324 317 316 314 311 307 306 311 318 323 322 318
222 225 223 221 223 225 223 217 214 216 219 225 235 240 237 232 230 228 227 227 229 230 233 239 245 249 251 252 254 256 257 259 261 264 269 272 273 275 277 278 279 279 278 277 277 275 273 272 272 275 278 279 278 279 280 283 290 298 300 298 299 305 309 311 313 317 321 327 327 317 313 320 324 317 314 314 312 310 310 309 313 320 323 322 318
221 227 227 226 227 229 230 227 223 221 223 226 232 240 242 236 231 228 228 228 230 233 236 240 244 247 250 252 255 257 258 259 261 264 266 269 270 270 271 273 275 275 275 279 282 282 280 276 274 276 277 276 275 277 280 285 293 296 295 295 301 308 310 311 315 318 319 322 323 312 304 311 317 315 315 316 314 313 316 317 316 319 319 313 311
218 224 228 229 230 232 233 233 232 230 229 232 237 241 244 243 238 234 232 231 232 234 237 240 244 246 249 251 253 256 258 260 262 263 265 267 268 267 266 267 267 265 265 268 273 278 281 280 280 281 279 275 276 279 284 291 295 293 293 297 304 309 309 310 314 318 320 326 329 314 304 311 317 317 317 318 319 320 322 321 317 316 314 310 310
218 219 225 228 230 232 235 237 238 237 236 237 241 244 245 246 245 242 240 238 237 237 238 240 243 246 249 251 253 255 257 260 262 264 265 266 267 267 266 266 264 264 266 266 263 266 272 275 277 279 280 280 281 285 291 296 295 292 295 299 304 308 308 309 316 321 325 330 323 309 311 317 321 321 321 322 325 328 327 321 317 317 316 315 314
223 219 220 224 227 231 235 237 240 242 240 238 242 245 246 246 246 245 244 244 242 241 241 242 244 246 248 251 253 254 256 258 261 263 264 265 266 267 266 265 263 262 265 264 259 258 262 268 274 278 279 279 280 287 295 295 290 291 295 297 302 308 309 310 316 320 321 322 316 314 318 321 324 326 327 326 325 328 330 326 322 323 324 325 326
Height
1588 1587 1588 1589 1588 1590 1591 1590 1591 1591 1589 1589 1589 1591 1591 1592 1592 1593 1592 1591 1590 1591 1592 1591 1593 1594 1593 1592 1593 1593 1593 1593 1594 1594 1594 1595 1595 1596 1596 1597 1597 1597 1598 1598 1598 1599 1599 1599 1599 1600 1600 1600 1600 1600 1600 1600 1600 1600 1600 1600 1600 1601 1601 1601 1600 1600 1600 1600 1600 1599 1599 1599 1598 1598 1598 1597 1597 1596 1596 1595 1595 1594 1593 1593 1592
1587 1586 1588 1590 1589 1590 1591 1590 1591 1591 1590 1590 1590 1591 1592 1592 1593 1594 1592 1591 1590 1591 1592 1592 1593 1594 1593 1593 1593 1593 1593 1593 1594 1595 1595 1595 1596 1596 1596 1597 1597 1597 1598 1598 1598 1599 1599 1599 1599 1600 1600 1600 1600 1600 1600 1600 1601 1601 1601 1601 1601 1601 1601 1601 1601 1600 1600 1600 1600 1599 1599 1599 1598 1598 1598 1597 1597 1597 1596 1595 1595 1594 1593 1592 1592
1586 1586 1587 1589 1590 1591 1592 1591 1591 1591 1591 1591 1591 1592 1593 1593 1593 1593 1591 1590 1591 1592 1593 1593 1594 1595 1594 1593 1594 1594 1594 1594 1595 1596 1596 1596 1596 1596 1597 1597 1598 1598 1598 1599 1599 1599 1599 1600 1600 1600 1600 1600 1600 1600 1601 1601 1601 1601 1601 1601 1601 1601 1601 1601 1601 1600 1600 1600 1600 1599 1599 1599 1599 1598 1598 1598 1597 1597 1596 1595 1595 1594 1593 1592 1592
1586 1586 1587 1589 1590 1591 1592 1592 1591 1592 1592 1592 1591 1592 1592 1592 1592 1591 1590 1590 1591 1593 1593 1593 1594 1595 1594 1593 1593 1595 1595 1595 1596 1597 1597 1597 1596 1596 1597 1597 1597 1598 1598 1599 1599 1599 1599 1600 1600 1600 1600 1601 1601 1601 1601 1601 1601 1601 1601 1601 1601 1601 1601 1601 1600 1600 1600 1600 1600 1599 1599 1599 1599 1598 1598 1598 1597 1597 1596 1595 1595 1594 1593 1592 1591
1586 1587 1588 1589 1590 1591 1592 1592 1592 1592 1592 1591 1591 1591 1591 1592 1591 1590 1590 1591 1592 1593 1593 1594 1594 1593 1594 1594 1593 1595 1596 1596 1597 1597 1598 1598 1597 1597 1597 1597 1598 1598 1599 1599 1599 1599 1599 1600 1600 1600 1600 1600 1601 1601 1601 1601 1601 1601 1601 1601 1601 1601 1600 1600 1600 1600 1600 1600 1600 1599 1599 1599 1599 1598 1598 1598 1597 1597 1596 1595 1595 1594 1593 1592 1591
1587 1588 1589 1590 1591 1592 1593 1592 1593 1593 1592 1591 1590 1591 1592 1591 1590 1590 1590 1591 1592 1593 1593 1594 1593 1593 1594 1595 1595 1595 1596 1597 1598 1598 1599 1599 1599 1598 1598 1598 1598 1599 1599 1599 1599 1599 1600 1600 1600 1600 1600 1600 1600 1601 1601 1601 1601 1601 1601 1601 1600 1600 1600 1600 1600 1600 1600 1600 1600 1599 1599 1599 1599 1598 1598 1598 1597 1597 1596 1595 1595 1594 1593 1592 1591
1588 1589 1589 1590 1591 1592 1593 1593 1593 1594 1592 1591 1591 1591 1592 1590 1590 1590 1591 1592 1592 1592 1593 1593 1594 1594 1594 1595 1595 1596 1597 1597 1598 1599 1599 1599 1600 1599 1599 1600 1599 1599 1600 1600 1600 1600 1600 1600 1600 1600 1600 1600 1600 1600 1600 1601 1601 1601 1600 1600 1600 1600 1600 1600 1600 1600 1600 1600 1599 1599 1599 1599 1598 1598 1598 1597 1597 1596 1596 1595 1594 1594 1593 1592 1591
1589 1590 1590 1590 1591 1592 1593 1593 1593 1594 1592 1592 1592 1591 1591 1590 1590 1591 1591 1592 1592 1592 1593 1593 1594 1595 1595 1595 1596 1597 1597 1598 1599 1599 1600 1600 1600 1600 1600 1601 1600 1600 1600 1600 1600 1600 1600 1600 1600 1600 1600 1600 1600 1600 1600 1600 1600 1600 1600 1600 1600 1600 1600 1600 1600 1600 1600 1600 1599 1599 1599 1599 1598 1598 1597 1597 1596 1596 1595 1595 1594 1593 1593 1592 1591
1589 1590 1590 1590 1592 1593 1593 1593 1593 1593 1592 1592 1592 1591 1590 1590 1591 1591 1591 1592 1593 1593 1593 1594 1594 1595 1595 1596 1597 1597 1598 1598 1599 1600 1600 1600 1601 1601 1601 1601 1600 1600 1600 1600 1600 1600 1600 1600 1600 1600 1600 1600 1600 1600 1600 1600 1600 1600 1600 1600 1600 1600 1600 1600 1600 1600 1600 1599 1599 1599 1599 1598 1598 1597 1597 1596 1596 1595 1595 1594 1594 1593 1593 1592 1591
1589 1590 1590 1591 1592 1592 1592 1592 1593 1593 1592 1592 1592 1591 1591 1591 1591 1591 1591 1591 1593 1594 1594 1595 1595 1596 1596 1597 1597 1598 1598 1599 1599 1600 1600 1600 1601 1601 1601 1601 1601 1601 1601 1601 1600 1600 1600 1600 1600 1600 1600 1600 1600 1600 1600 1600 1600 1600 1600 1600 1600 1600 1600 1600 1600 1600 1599 1599 1599 1599 1598 1598 1597 1597 1596 1596 1595 1595 1594 1594 1593 1593 1592 1592 1591
1589 1590 1591 1592 1592 1592 1592 1592 1593 1593 1592 1592 1592 1591 1591 1591 1592 1592 1592 1592 1593 1594 1594 1595 1596 1596 1597 1597 1597 1598 1599 1599 1599 1600 1601 1601 1601 1601 1601 1601 1601 1601 1601 1601 1601 1600 1600 1600 1600 1600 1600 1600 1600 1600 1600 1600 1600 1600 1600 1600 1600 1600 1600 1599 1599 1599 1599 1599 1598 1598 1598 1597 1597 1596 1596 1595 1595 1594 1594 1593 1593 1593 1592 1592 1591
1589 1590 1591 1592 1593 1593 1593 1593 1593 1592 1592 1592 1591 1591 1592 1592 1592 1592 1592 1593 1594 1594 1595 1595 1596 1597 1597 1597 1598 1598 1599 1599 1600 1600 1601 1601 1601 1601 1602 1602 1602 1601 1601 1601 1601 1601 1600 1600 1600 1600 1600 1600 1600 1600 1600 1600 1600 1600 1600 1600 1600 1599 1599 1599 1599 1599 1598 1598 1598 1597 1597 1597 1596 1596 1595 1595 1594 1594 1594 1593 1593 1592 1592 1591 1591
1589 1590 1590 1591 1592 1592 1593 1594 1594 1593 1593 1592 1592 1592 1592 1592 1592 1592 1593 1594 1595 1595 1596 1596 1596 1597 1598 1598 1598 1599 1599 1600 1600 1601 1601 1601 1601 1601 1602 1602 1602 1601 1601 1601 1601 1601 1601 1601 1601 1601 1600 1600 1600 1600 1600 1600 1600 1600 1600 1600 1599 1599 1599 1599 1598 1598 1598 1597 1597 1597 1596 1596 1595 1595 1595 1594 1594 1593 1593 1593 1592 1592 1591 1591 1590
1589 1589 1590 1591 1591 1592 1593 1593 1594 1593 1593 1593 1593 1593 1592 1592 1592 1593 1593 1594 1595 1596 1596 1596 1597 1598 1598 1599 1599 1600 1600 1600 1601 1601 1601 1602 1602 1602 1602 1603 1603 1602 1602 1602 1601 1602 1603 1602 1602 1602 1601 1600 1600 1600 1600 1600 1600 1600 1600 1599 1599 1599 1599 1598 1598 1598 1597 1597 1596 1596 1596 1595 1595 1594 1594 1594 1593 1593 1592 1592 1592 1591 1591 1590 1590
1588 1589 1590 1590 1591 1592 1592 1593 1593 1593 1592 1593 1593 1593 1593 1592 1592 1593 1593 1594 1595 1596 1596 1596 1598 1598 1599 1599 1600 1600 1600 1601 1601 1602 1602 1602 1602 1603 1603 1603 1603 1602 1602 1603 1603 1603 1603 1603 1602 1602 1601 1601 1601 1600 1600 1599 1599 1599 1599 1599 1599 1599 1598 1598 1597 1597 1596 1596 1596 1595 1595 1595 1594 1594 1593 1593 1593 1592 1592 1591 1591 1591 1590 1590 1590
1588 1589 1589 1590 1591 1591 1592 1592 1592 1592 1592 1593 1593 1593 1594 1593 1593 1594 1594 1595 1596 1597 1597 1597 1597 1598 1599 1599 1599 1600 1600 1600 1601 1601 1602 1602 1603 1603 1603 1603 1602 1601 1602 1603 1603 1603 1603 1602 1601 1601 1601 1601 1601 1600 1600 1599 1599 1599 1599 1598 1598 1598 1597 1597 1596 1596 1596 1595 1595 1595 1594 1594 1594 1593 1593 1592 1592 1591 1591 1591 1590 1590 1590 1589 1589
1587 1588 1589 1590 1590 1591 1592 1592 1592 1592 1592 1593 1593 1593 1593 1594 1594 1594 1594 1595 1596 1597 1597 1597 1598 1598 1599 1599 1599 1599 1600 1600 1601 1601 1602 1602 1603 1603 1602 1603 1602 1601 1602 1602 1602 1602 1603 1602 1601 1600 1600 1600 1600 1600 1600 1599 1598 1598 1598 1597 1597 1597 1596 1596 1596 1595 1595 1595 1595 1594 1594 1594 1593 1593 1592 1592 1592 1591 1591 1590 1590 1590 1589 1589 1588
1587 1588 1589 1589 1590 1591 1591 1592 1592 1593 1593 1593 1594 1594 1594 1594 1595 1595 1595 1595 1595 1597 1598 1598 1598 1598 1598 1599 1600 1600 1601 1601 1601 1602 1602 1602 1602 1602 1602 1602 1602 1601 1601 1602 1602 1602 1603 1602 1601 1600 1600 1600 1600 1599 1599 1599 1598 1597 1597 1597 1597 1596 1596 1596 1595 1595 1595 1595 1594 1594 1594 1593 1593 1593 1592 1592 1591 1591 1590 1590 1589 1589 1588 1588 1587
1587 1587 1588 1589 1590 1590 1591 1592 1592 1593 1593 1593 1594 1595 1595 1595 1595 1595 1595 1595 1595 1596 1598 1598 1598 1598 1599 1600 1600 1601 1601 1601 1602 1602 1602 1602 1602 1602 1602 1602 1602 1601 1602 1602 1603 1603 1603 1603 1602 1602 1600 1599 1599 1599 1598 1598 1597 1597 1596 1596 1596 1596 1596 1595 1595 1595 1595 1594 1594 1594 1594 1593 1593 1592 1592 1591 1591 1590 1589 1589 1588 1588 1587 1587 1587
1586 1587 1588 1589 1589 1590 1591 1591 1592 1593 1593 1594 1594 1595 1595 1595 1596 1595 1595 1596 1596 1596 1598 1598 1598 1599 1599 1600 1601 1601 1601 1601 1602 1602 1603 1602 1601 1601 1602 1602 1602 1602 1602 1603 1603 1603 1603 1602 1603 1603 1601 1600 1599 1598 1598 1597 1597 1596 1596 1596 1596 1595 1595 1595 1595 1595 1594 1594 1594 1593 1593 1593 1592 1591 1591 1590 1590 1589 1589 1588 1588 1587 1587 1587 1586
1585 1586 1587 1588 1589 1589 1590 1591 1592 1592 1593 1594 1595 1596 1596 1595 1596 1596 1596 1596 1596 1596 1597 1598 1599 1599 1599 1599 1600 1601 1601 1602 1602 1602 1603 1602 1601 1602 1602 1602 1602 1603 1603 1603 1603 1603 1603 1602 1602 1602 1601 1600 1599 1598 1598 1597 1596 1596 1596 1596 1595 1595 1595 1595 1595 1594 1594 1594 1593 1593 1592 1592 1591 1590 1590 1589 1589 1588 1588 1588 1587 1587 1586 1586 1586
1584 1586 1586 1587 1588 1589 1590 1591 1591 1592 1593 1594 1595 1595 1596 1596 1596 1596 1596 1596 1597 1597 1597 1597 1598 1599 1599 1599 1600 1601 1601 1602 1603 1603 1603 1603 1602 1602 1602 1602 1602 1602 1603 1603 1603 1602 1603 1602 1602 1601 1601 1601 1600 1598 1598 1597 1596 1596 1596 1595 1595 1595 1595 1595 1594 1594 1593 1593 1592 1592 1591 1590 1590 1589 1589 1588 1588 1588 1587 1587 1586 1586 1585 1585 1584
1584 1585 1585 1586 1588 1588 1589 1590 1591 1592 1593 1593 1594 1595 1596 1596 1596 1596 1596 1597 1597 1597 1597 1598 1598 1598 1599 1599 1599 1601 1602 1602 1602 1603 1603 1603 1603 1602 1602 1602 1602 1602 1602 1602 1602 1602 1602 1602 1602 1601 1601 1601 1600 1599 1598 1597 1597 1596 1596 1595 1595 1595 1595 1594 1594 1593 1593 1592 1591 1590 1590 1589 1589 1588 1588 1588 1587 1587 1586 1585 1585 1584 1584 1583 1583
1583 1584 1585 1585 1587 1588 1589 1590 1591 1591 1592 1593 1594 1595 1596 1597 1596 1596 1596 1596 1597 1597 1597 1598 1598 1598 1599 1600 1600 1601 1602 1602 1602 1602 1602 1602 1602 1602 1602 1602 1602 1602 1602 1602 1601 1602 1601 1601 1601 1601 1601 1600 1600 1599 1598 1597 1597 1596 1596 1595 1595 1594 1594 1593 1593 1592 1591 1591 1590 1589 1588 1588 1588 1587 1587 1586 1586 1585 1585 1584 1583 1583 1582 1582 1581
1581 1583 1584 1585 1586 1586 1588 1589 1590 1591 1592 1592 1593 1594 1595 1596 1596 1596 1596 1596 1596 1597 1597 1598 1598 1599 1599 1600 1601 1601 1602 1602 1602 1602 1602 1602 1602 1602 1602 1602 1602 1602 1602 1602 1601 1601 1601 1601 1601 1601 1600 1600 1599 1598 1597 1597 1596 1596 1595 1595 1594 1594 1593 1592 1591 1591 1590 1589 1588 1588 1587 1587 1586 1586 1585 1585 1584 1584 1583 1582 1582 1581 1580 1580 1579
1579 1581 1583 1584 1585 1585 1586 1588 1589 1590 1591 1592 1592 1593 1594 1595 1595 1596 1596 1596 1596 1597 1597 1597 1598 1598 1599 1600 1601 1601 1602 1602 1602 1602 1602 1602 1602 1602 1602 1602 1602 1602 1602 1602 1601 1601 1600 1600 1600 1599 1599 1598 1598 1597 1596 1596 1595 1594 1594 1593 1593 1592 1592 1591 1590 1589 1588 1588 1587 1587 1586 1585 1585 1584 1583 1583 1582 1582 1581 1580 1580 1579 1578 1578 1577
1577 1579 1581 1582 1583 1584 1585 1586 1588 1589 1590 1591 1591 1592 1593 1594 1594 1595 1595 1596 1596 1596 1596 1597 1598 1598 1599 1599 1599 1601 1602 1602 1602 1602 1602 1602 1602 1602 1601 1601 1601 1601 1601 1601 1601 1600 1600 1600 1600 1599 1597 1597 1596 1596 1595 1594 1594 1593 1593 1592 1591 1590 1589 1589 1588 1587 1587 1586 1586 1585 1584 1583 1583 1582 1581 1581 1580 1579 1579 1578 1577 1577 1576 1575 1575
1576 1577 1578 1580 1582 1582 1584 1585 1586 1587 1588 1589 1590 1591 1592 1593 1593 1594 1595 1595 1596 1596 1596 1596 1597 1598 1598 1598 1599 1600 1601 1601 1601 1602 1601 1601 1600 1600 1600 1600 1601 1601 1601 1601 1600 1600 1599 1599 1598 1597 1596 1596 1595 1594 1593 1593 1592 1591 1590 1590 1589 1587 1587 1586 1586 1585 1585 1584 1583 1582 1582 1581 1580 1579 1578 1578 1577 1576 1576 1575 1574 1574 1573 1572 1572
1574 1575 1576 1578 1580 1581 1582 1583 1584 1586 1587 1588 1589 1590 1591 1592 1592 1593 1594 1594 1595 1595 1595 1596 1596 1597 1598 1598 1598 1599 1599 1600 1600 1600 1600 1599 1599 1599 1599 1599 1599 1599 1600 1600 1599 1599 1599 1598 1598 1596 1595 1594 1594 1593 1592 1591 1590 1589 1588 1587 1586 1585 1584 1584 1584 1584 1583 1582 1581 1580 1579 1578 1577 1576 1575 1575 1574 1573 1572 1571 1571 1570 1569 1569 1568
1572 1574 1575 1576 1578 1579 1580 1582 1583 1584 1585 1586 1588 1589 1590 1591 1591 1592 1593 1593 1594 1594 1595 1595 1595 1596 1597 1598 1598 1598 1599 1599 1599 1599 1599 1598 1598 1599 1598 1598 1598 1598 1598 1598 1598 1598 1598 1597 1597 1596 1594 1593 1592 1591 1590 1589 1588 1587 1586 1585 1584 1583 1583 1582 1581 1581 1580 1580 1579 1577 1576 1575 1574 1573 1572 1571 1570 1570 1569 1568 1567 1566 1565 1565 1564
1569 1571 1573 1574 1575 1577 1578 1580 1581 1582 1584 1585 1586 1587 1588 1589 1590 1591 1591 1592 1593 1593 1594 1594 1595 1595 1596 1596 1597 1597 1598 1598 1599 1599 1599 1598 1597 1598 1597 1597 1597 1597 1597 1597 1596 1596 1596 1596 1596 1595 1594 1593 1591 1590 1588 1587 1586 1585 1584 1584 1583 1582 1582 1581 1580 1579 1578 1577 1576 1575 1574 1572 1571 1570 1569 1568 1567 1566 1565 1564 1563 1562 1561 1561 1560
1567 1568 1570 1572 1573 1575 1576 1578 1580 1581 1582 1583 1584 1585 1587 1588 1589 1590 1590 1591 1591 1592 1593 1593 1594 1594 1594 1595 1595 1596 1597 1597 1597 1598 1598 1597 1596 1596 1596 1595 1595 1595 1595 1595 1594 1594 1594 1594 1593 1593 1593 1592 1590 1589 1587 1585 1584 1583 1582 1581 1581 1580 1579 1579 1577 1576 1575 1575 1574 1572 1571 1569 1568 1567 1566 1565 1563 1562 1561 1559 1558 1557 1557 1556 1556
1564 1566 1568 1570 1571 1573 1575 1576 1578 1579 1580 1581 1583 1584 1585 1586 1587 1588 1589 1589 1590 1591 1591 1592 1592 1593 1593 1594 1594 1595 1595 1596 1596 1596 1597 1597 1596 1595 1595 1594 1594 1594 1594 1594 1593 1592 1592 1592 1591 1590 1590 1589 1588 1586 1585 1583 1582 1581 1580 1579 1578 1577 1576 1575 1574 1573 1572 1571 1571 1570 1568 1567 1565 1564 1563 1561 1560 1558 1556 1555 1554 1553 1552 1552 1551
1562 1563 1565 1567 1569 1571 1572 1574 1576 1577 1578 1579 1581 1582 1583 1584 1585 1586 1587 1588 1588 1589 1590 1590 1591 1591 1592 1592 1593 1593 1594 1594 1594 1595 1595 1596 1595 1595 1594 1593 1594 1594 1593 1593 1592 1591 1590 1589 1589 1588 1587 1586 1585 1583 1582 1580 1579 1579 1578 1577 1575 1574 1573 1572 1570 1569 1568 1567 1566 1566 1565 1564 1563 1561 1560 1558 1556 1555 1553 1551 1550 1549 1548 1547 1546
1559 1561 1563 1565 1567 1568 1570 1572 1573 1575 1576 1577 1579 1580 1581 1582 1583 1585 1585 1586 1587 1587 1588 1589 1589 1590 1590 1590 1591 1592 1592 1593 1593 1593 1593 1594 1594 1594 1593 1593 1593 1593 1593 1591 1590 1589 1588 1587 1586 1586 1585 1584 1583 1581 1580 1578 1578 1577 1576 1575 1573 1572 1571 1569 1568 1566 1565 1564 1562 1562 1561 1560 1559 1558 1557 1555 1553 1551 1550 1548 1546 1545 1544 1543 1541
1556 1558 1560 1562 1564 1565 1568 1569 1570 1572 1574 1575 1577 1578 1579 1580 1581 1583 1583 1584 1585 1585 1586 1587 1588 1588 1588 1589 1589 1590 1591 1591 1591 1591 1592 1592 1592 1592 1592 1592 1592 1592 1591 1590 1589 1587 1586 1585 1584 1583 1582 1581 1580 1579 1578 1577 1576 1575 1573 1572 1571 1569 1568 1567 1565 1563 1562 1561 1559 1558 1557 1556 1555 1554 1553 1551 1550 1548 1546 1544 1542 1541 1540 1539 1537
1553 1555 1557 1559 1561 1562 1564 1566 1568 1569 1571 1573 1574 1576 1577 1578 1579 1580 1581 1582 1582 1583 1584 1585 1586 1586 1586 1587 1587 1588 1589 1589 1590 1590 1590 1590 1590 1589 1590 1590 1590 1590 1589 1588 1587 1586 1584 1583 1581 1580 1579 1578 1576 1576 1575 1574 1573 1572 1571 1570 1568 1567 1566 1564 1563 1561 1559 1559 1557 1556 1554 1553 1551 1550 1548 1547 1545 1544 1543 1541 1539 1538 1536 1534 1533
1551 1552 1553 1556 1558 1559 1561 1564 1565 1567 1569 1570 1572 1574 1575 1576 1577 1578 1579 1580 1580 1581 1582 1583 1584 1584 1584 1585 1585 1586 1586 1587 1588 1588 1588 1588 1588 1588 1588 1588 1588 1588 1587 1586 1584 1583 1582 1581 1579 1578 1576 1575 1574 1573 1572 1572 1570 1570 1568 1567 1566 1565 1564 1563 1561 1559 1558 1557 1556 1554 1552 1550 1548 1546 1544 1542 1540 1538 1537 1536 1535 1534 1533 1531 1529
1547 1550 1551 1552 1554 1556 1558 1561 1563 1564 1566 1568 1569 1571 1573 1574 1575 1576 1577 1578 1578 1579 1580 1581 1582 1582 1582 1582 1583 1583 1584 1585 1586 1586 1587 1586 1586 1586 1586 1586 1586 1586 1585 1584 1583 1582 1581 1580 1578 1576 1574 1574 1572 1571 1571 1571 1570 1568 1567 1565 1564 1563 1563 1561 1559 1557 1556 1555 1553 1551 1549 1547 1546 1544 1541 1538 1536 1534 1532 1530 1529 1529 1528 1527 1525
1544 1547 1548 1550 1551 1553 1555 1557 1560 1561 1563 1564 1566 1567 1570 1571 1572 1573 1574 1575 1576 1577 1578 1578 1579 1580 1581 1581 1581 1581 1581 1582 1583 1584 1584 1585 1584 1584 1584 1584 1584 1584 1583 1582 1581 1580 1580 1578 1576 1574 1573 1572 1570 1569 1569 1570 1569 1568 1567 1565 1563 1561 1560 1560 1558 1556 1554 1552 1550 1549 1548 1546 1544 1542 1539 1536 1534 1532 1529 1526 1524 1522 1521 1521 1521
1541 1543 1546 1548 1549 1550 1552 1554 1556 1558 1559 1561 1562 1564 1566 1568 1569 1570 1571 1572 1574 1574 1575 1576 1577 1578 1579 1579 1579 1579 1579 1579 1580 1581 1582 1582 1582 1582 1582 1582 1582 1581 1581 1580 1579 1578 1577 1576 1574 1573 1571 1569 1569 1568 1568 1569 1568 1567 1566 1564 1562 1559 1557 1557 1556 1555 1552 1549 1547 1546 1546 1544 1542 1539 1537 1535 1532 1530 1527 1523 1520 1518 1517 1516 1515
1537 1540 1543 1545 1546 1547 1549 1550 1553 1554 1556 1557 1558 1560 1563 1565 1566 1568 1568 1569 1571 1572 1573 1574 1575 1576 1576 1577 1577 1577 1577 1577 1577 1578 1579 1580 1580 1580 1580 1580 1579 1579 1578 1577 1577 1576 1575 1573 1572 1571 1570 1568 1568 1567 1567 1567 1567 1566 1564 1563 1561 1558 1556 1553 1552 1553 1552 1548 1545 1542 1541 1541 1539 1536 1534 1532 1530 1528 1525 1521 1518 1516 1514 1513 1512
1534 1536 1539 1542 1544 1545 1546 1547 1549 1551 1552 1553 1555 1557 1560 1562 1563 1565 1566 1566 1567 1569 1570 1570 1572 1573 1574 1574 1574 1574 1575 1575 1575 1575 1576 1577 1577 1577 1578 1577 1577 1576 1575 1575 1574 1573 1573 1571 1570 1569 1568 1566 1566 1566 1565 1565 1564 1563 1562 1562 1560 1558 1555 1551 1549 1549 1549 1547 1543 1538 1536 1536 1535 1532 1529 1528 1526 1524 1522 1519 1516 1514 1512 1510 1509
1530 1532 1535 1537 1540 1543 1544 1545 1546 1548 1549 1550 1551 1554 1556 1559 1560 1562 1563 1564 1564 1565 1567 1567 1569 1570 1571 1572 1572 1572 1572 1572 1572 1572 1573 1573 1574 1575 1575 1574 1574 1573 1572 1572 1572 1571 1571 1569 1568 1567 1566 1565 1565 1564 1563 1562 1561 1560 1560 1559 1558 1556 1554 1551 1547 1545 1545 1544 1541 1536 1532 1531 1531 1527 1524 1523 1522 1520 1518 1516 1514 1511 1509 1508 1506
1526 1529 1531 1534 1536 1539 1541 1543 1544 1545 1546 1547 1548 1550 1553 1555 1557 1559 1560 1561 1562 1562 1563 1564 1565 1566 1567 1568 1569 1570 1570 1569 1569 1569 1569 1570 1571 1572 1572 1572 1571 1570 1569 1569 1569 1568 1568 1567 1565 1564 1563 1563 1563 1563 1562 1559 1557 1557 1557 1556 1555 1553 1552 1550 1546 1543 1543 1542 1538 1533 1528 1527 1527 1524 1522 1521 1519 1518 1516 1513 1511 1509 1506 1505 1503
1523 1525 1528 1530 1532 1534 1537 1539 1541 1542 1544 1544 1544 1547 1550 1552 1554 1556 1557 1559 1559 1560 1561 1561 1562 1563 1564 1565 1566 1566 1567 1567 1566 1566 1566 1567 1567 1568 1568 1568 1568 1567 1567 1566 1566 1565 1564 1564 1562 1561 1561 1562 1561 1560 1559 1557 1556 1555 1553 1551 1551 1549 1548 1546 1544 1542 1540 1538 1535 1530 1525 1524 1525 1522 1520 1519 1518 1515 1513 1511 1509 1506 1504 1501 1500
1520 1522 1525 1527 1528 1530 1533 1535 1537 1539 1541 1542 1542 1543 1546 1549 1551 1553 1554 1555 1556 1557 1558 1558 1559 1560 1561 1561 1562 1563 1563 1563 1563 1564 1564 1564 1564 1564 1564 1564 1564 1564 1563 1563 1562 1562 1562 1561 1560 1559 1559 1559 1558 1558 1557 1556 1554 1553 1551 1549 1547 1546 1544 1542 1541 1540 1538 1536 1534 1530 1525 1523 1524 1521 1518 1517 1515 1512 1509 1507 1505 1503 1501 1499 1497
1518 1520 1522 1524 1525 1527 1529 1532 1534 1535 1537 1539 1539 1540 1542 1545 1548 1549 1551 1552 1552 1553 1554 1555 1555 1556 1557 1558 1559 1559 1560 1560 1560 1561 1561 1562 1562 1562 1562 1562 1562 1561 1560 1559 1559 1558 1559 1559 1558 1557 1557 1556 1555 1555 1554 1554 1553 1552 1549 1547 1546 1545 1542 1539 1538 1538 1537 1535 1534 1531 1527 1524 1523 1520 1515 1513 1512 1508 1505 1503 1501 1500 1499 1497 1494
1515 1517 1519 1521 1522 1524 1526 1528 1530 1532 1534 1535 1536 1537 1539 1541 1544 1546 1547 1548 1549 1549 1551 1551 1552 1553 1553 1554 1555 1555 1556 1556 1557 1558 1559 1559 1559 1559 1559 1559 1559 1559 1558 1558 1557 1556 1556 1556 1556 1555 1554 1553 1553 1552 1552 1552 1552 1550 1547 1545 1545 1543 1540 1538 1536 1535 1535 1534 1532 1530 1527 1523 1522 1518 1513 1510 1508 1505 1502 1501 1500 1498 1497 1494 1492
1512 1515 1516 1518 1520 1521 1522 1524 1526 1528 1530 1531 1532 1534 1535 1537 1540 1542 1543 1544 1545 1546 1547 1548 1549 1549 1549 1550 1551 1552 1552 1553 1554 1555 1556 1556 1556 1556 1556 1556 1556 1555 1555 1556 1556 1555 1555 1554 1554 1553 1552 1551 1550 1550 1550 1550 1549 1547 1546 1544 1543 1542 1539 1537 1535 1533 1532 1533 1532 1529 1525 1521 1518 1516 1511 1506 1503 1502 1501 1499 1497 1495 1493 1490 1488
1509 1512 1514 1515 1517 1518 1520 1521 1522 1524 1527 1528 1528 1530 1532 1534 1536 1538 1539 1540 1541 1542 1544 1545 1545 1545 1546 1546 1547 1548 1549 1550 1551 1551 1552 1552 1552 1552 1553 1553 1552 1552 1552 1553 1554 1554 1553 1552 1552 1552 1550 1549 1548 1548 1549 1549 1547 1546 1545 1543 1542 1540 1538 1537 1535 1533 1531 1531 1530 1526 1522 1519 1516 1513 1509 1504 1499 1497 1498 1497 1495 1492 1489 1486 1483